Timestamp, Local Timestamp, ID, PM25, PM10, Co2, Temperature, Relative Humidity, Monitor ID, O3
2022-03-30T23:18:06Z,03/30/22 19:18,7868888,3.229,0.014000000000000002,494,12.9,61.3,69,8.0
2022-03-30T23:19:06Z,03/30/22 19:19,7868898,3.404,0.022,499,12.8,62.3,69,8.0
2022-03-30T23:20:06Z,03/30/22 19:20,7868908,3.3880000000000003,0.017,499,12.8,63.4,69,9.0
2022-03-30T23:21:06Z,03/30/22 19:21,7868917,3.414,0.009,497,12.7,64.0,69,9.0
2022-03-30T23:22:06Z,03/30/22 19:22,7868927,3.471,0.009,495,12.7,64.6,69,9.0
2022-03-30T23:23:06Z,03/30/22 19:23,7868938,3.678,0.024,499,12.7,65.1,69,10.0
2022-03-30T23:24:06Z,03/30/22 19:24,7868947,3.2969999999999997,0.024,495,12.6,65.8,69,10.0
2022-03-30T23:25:06Z,03/30/22 19:25,7868959,3.529,0.005,500,12.6,66.3,69,10.0
2022-03-30T23:26:06Z,03/30/22 19:26,7868968,3.425,0.034,498,12.5,66.6,69,10.0
2022-03-30T23:27:06Z,03/30/22 19:27,7868978,3.432,0.006,499,12.5,67.0,69,11.0
2022-03-30T23:28:06Z,03/30/22 19:28,7868987,3.285,0.009,498,12.4,67.4,69,11.0
2022-03-30T23:29:06Z,03/30/22 19:29,7868999,3.592,0.023,502,12.4,67.6,69,11.0
2022-03-30T23:30:06Z,03/30/22 19:30,7869009,3.5909999999999997,0.009,502,12.4,67.9,69,11.0
2022-03-30T23:31:06Z,03/30/22 19:31,7869018,3.8280000000000003,0.015,499,12.4,68.2,69,11.0
2022-03-30T23:32:06Z,03/30/22 19:32,7869027,3.4880000000000004,0.01,506,12.3,68.5,69,11.0
2022-03-30T23:33:06Z,03/30/22 19:33,7869038,3.239,0.04,506,12.3,68.8,69,11.0
2022-03-30T23:34:06Z,03/30/22 19:34,7869048,3.4210000000000003,0.014000000000000002,506,12.3,69.1,69,11.0
2022-03-30T23:35:06Z,03/30/22 19:35,7869058,3.5789999999999997,0.03,504,12.3,69.3,69,11.0
2022-03-30T23:36:06Z,03/30/22 19:36,7869068,3.588,0.024,508,12.2,69.6,69,12.0
2022-03-30T23:37:06Z,03/30/22 19:37,7869077,3.4810000000000003,0.026000000000000002,506,12.2,69.8,69,12.0
2022-03-30T23:38:06Z,03/30/22 19:38,7869088,3.5740000000000003,0.02,500,12.2,70.0,69,12.0
2022-03-30T23:39:06Z,03/30/22 19:39,7869097,3.63,0.009,506,12.2,70.1,69,11.0
2022-03-30T23:40:06Z,03/30/22 19:40,7869107,3.566,0.019,504,12.2,70.3,69,12.0
2022-03-30T23:41:06Z,03/30/22 19:41,7869118,3.69,0.012,508,12.1,70.5,69,12.0
2022-03-30T23:42:06Z,03/30/22 19:42,7869128,3.346,0.028999999999999998,508,12.1,70.7,69,12.0
2022-03-30T23:43:06Z,03/30/22 19:43,7869138,3.724,0.011,508,12.1,71.0,69,12.0
2022-03-30T23:44:06Z,03/30/22 19:44,7869148,3.4200000000000004,0.020999999999999998,509,12.1,71.1,69,13.0
2022-03-30T23:45:06Z,03/30/22 19:45,7869157,3.558,0.020999999999999998,513,12.1,71.5,69,12.0
2022-03-30T23:46:06Z,03/30/22 19:46,7869167,3.55,0.008,513,12.1,71.6,69,12.0
2022-03-30T23:47:06Z,03/30/22 19:47,7869177,3.6049999999999995,0.019,509,12.1,71.8,69,13.0
2022-03-30T23:48:06Z,03/30/22 19:48,7869188,3.65,0.019,506,12.1,71.9,69,13.0
2022-03-30T23:49:06Z,03/30/22 19:49,7869198,3.467,0.019,509,12.0,72.0,69,13.0
2022-03-30T23:50:06Z,03/30/22 19:50,7869208,3.557,0.031,511,12.0,72.2,69,12.0
2022-03-30T23:51:06Z,03/30/22 19:51,7869218,3.54,0.020999999999999998,513,12.0,72.2,69,12.0
2022-03-30T23:52:06Z,03/30/22 19:52,7869227,3.597,0.015,506,12.0,72.5,69,13.0
2022-03-30T23:53:06Z,03/30/22 19:53,7869238,3.5810000000000004,0.037,509,12.0,72.6,69,13.0
2022-03-30T23:54:06Z,03/30/22 19:54,7869248,3.522,0.012,511,12.0,72.7,69,13.0
2022-03-30T23:55:06Z,03/30/22 19:55,7869260,3.6090000000000004,0.020999999999999998,513,12.0,72.9,69,13.0
2022-03-30T23:56:06Z,03/30/22 19:56,7869267,3.5450000000000004,0.028000000000000004,513,12.0,73.2,69,13.0
2022-03-30T23:57:06Z,03/30/22 19:57,7869278,3.351,0.009,515,12.0,73.1,69,12.0
2022-03-30T23:58:06Z,03/30/22 19:58,7869288,3.6710000000000003,0.007000000000000001,520,12.0,73.1,69,13.0
2022-03-30T23:59:06Z,03/30/22 19:59,7869298,3.564,0.009,516,12.0,73.4,69,14.0
2022-03-31T00:00:06Z,03/30/22 20:00,7869308,3.531,0.012,522,12.0,73.5,69,13.0
2022-03-31T00:01:06Z,03/30/22 20:01,7869319,3.62,0.016,516,12.0,73.6,69,13.0
2022-03-31T00:02:06Z,03/30/22 20:02,7869329,3.3630000000000004,0.03,518,12.0,73.8,69,14.0
2022-03-31T00:03:06Z,03/30/22 20:03,7869342,3.7630000000000003,0.017,516,12.0,74.0,69,14.0
2022-03-31T00:04:06Z,03/30/22 20:04,7869351,3.4909999999999997,0.01,515,12.0,74.0,69,13.0
2022-03-31T00:05:06Z,03/30/22 20:05,7869363,3.679,0.014000000000000002,518,12.1,74.1,69,13.0
2022-03-31T00:06:06Z,03/30/22 20:06,7869373,3.474,0.006,517,12.1,74.2,69,14.0
2022-03-31T00:07:06Z,03/30/22 20:07,7869384,3.843,0.036,516,12.1,74.4,69,14.0
2022-03-31T00:08:06Z,03/30/22 20:08,7869395,3.4549999999999996,0.013000000000000001,513,12.1,74.6,69,14.0
2022-03-31T00:09:06Z,03/30/22 20:09,7869406,3.607,0.02,523,12.1,74.6,69,13.0
2022-03-31T00:10:06Z,03/30/22 20:10,7869419,3.7119999999999997,0.02,516,12.1,74.8,69,14.0
2022-03-31T00:11:06Z,03/30/22 20:11,7869428,3.464,0.007000000000000001,521,12.1,75.0,69,14.0
2022-03-31T00:12:06Z,03/30/22 20:12,7869439,3.778,0.02,522,12.2,75.1,69,14.0
2022-03-31T00:13:06Z,03/30/22 20:13,7869450,3.5200000000000005,0.014000000000000002,520,12.2,75.2,69,14.0
2022-03-31T00:14:06Z,03/30/22 20:14,7869461,3.7600000000000002,0.02,520,12.2,75.4,69,15.0
2022-03-31T00:15:06Z,03/30/22 20:15,7869472,3.655,0.026000000000000002,520,12.2,75.4,69,14.0
2022-03-31T00:16:06Z,03/30/22 20:16,7869483,3.835,0.017,517,12.2,75.4,69,14.0
2022-03-31T00:17:06Z,03/30/22 20:17,7869494,3.6229999999999998,0.013000000000000001,520,12.2,75.6,69,15.0
2022-03-31T00:18:06Z,03/30/22 20:18,7869505,3.9270000000000005,0.018,520,12.2,75.7,69,14.0
2022-03-31T00:19:06Z,03/30/22 20:19,7869517,3.8869999999999996,0.007000000000000001,518,12.2,75.7,69,14.0
2022-03-31T00:20:06Z,03/30/22 20:20,7869527,3.739,0.011,522,12.3,75.8,69,15.0
2022-03-31T00:21:06Z,03/30/22 20:21,7869539,3.675,0.024,523,12.3,75.8,69,14.0
2022-03-31T00:22:06Z,03/30/22 20:22,7869549,3.774,0.036,522,12.3,76.0,69,14.0
2022-03-31T00:23:06Z,03/30/22 20:23,7869561,3.789,0.024,526,12.3,76.0,69,14.0
2022-03-31T00:24:06Z,03/30/22 20:24,7869571,3.815,0.022,520,12.3,76.1,69,15.0
2022-03-31T00:25:06Z,03/30/22 20:25,7869583,3.4850000000000003,0.025,517,12.3,76.4,69,14.0
2022-03-31T00:26:06Z,03/30/22 20:26,7869595,3.525,0.020999999999999998,520,12.3,76.3,69,14.0
2022-03-31T00:27:06Z,03/30/22 20:27,7869604,3.7880000000000003,0.007000000000000001,520,12.3,76.3,69,14.0
2022-03-31T00:28:06Z,03/30/22 20:28,7869616,3.607,0.008,520,12.3,76.4,69,15.0
2022-03-31T00:29:06Z,03/30/22 20:29,7869626,3.4899999999999998,0.005,520,12.3,76.5,69,14.0
2022-03-31T00:30:06Z,03/30/22 20:30,7869638,3.55,0.026000000000000002,520,12.3,76.7,69,14.0
2022-03-31T00:31:06Z,03/30/22 20:31,7869649,3.9090000000000003,0.012,516,12.3,76.8,69,14.0
2022-03-31T00:32:06Z,03/30/22 20:32,7869659,3.7979999999999996,0.020999999999999998,521,12.4,76.9,69,14.0
2022-03-31T00:33:06Z,03/30/22 20:33,7869670,3.8729999999999998,0.018,527,12.4,77.0,69,14.0
2022-03-31T00:34:06Z,03/30/22 20:34,7869682,3.6630000000000003,0.015,525,12.4,77.1,69,15.0
2022-03-31T00:35:06Z,03/30/22 20:35,7869693,3.586,0.026000000000000002,530,12.4,77.1,69,14.0
2022-03-31T00:36:06Z,03/30/22 20:36,7869703,3.7329999999999997,0.017,529,12.4,77.2,69,15.0
2022-03-31T00:37:06Z,03/30/22 20:37,7869715,4.002000000000001,0.015,526,12.4,77.3,69,14.0
2022-03-31T00:38:06Z,03/30/22 20:38,7869725,3.5509999999999997,0.01,525,12.4,77.2,69,14.0
2022-03-31T00:39:06Z,03/30/22 20:39,7869736,3.7,0.017,518,12.4,77.4,69,15.0
2022-03-31T00:40:06Z,03/30/22 20:40,7869747,3.771,0.024,523,12.4,77.5,69,14.0
2022-03-31T00:41:06Z,03/30/22 20:41,7869759,3.7270000000000003,0.02,523,12.4,77.6,69,15.0
2022-03-31T00:42:06Z,03/30/22 20:42,7869771,3.5789999999999997,0.012,523,12.5,77.7,69,14.0
2022-03-31T00:43:06Z,03/30/22 20:43,7869780,3.7350000000000003,0.018,530,12.5,77.7,69,14.0
2022-03-31T00:44:06Z,03/30/22 20:44,7869791,3.771,0.020999999999999998,526,12.5,77.7,69,15.0
2022-03-31T00:45:06Z,03/30/22 20:45,7869803,3.46,0.008,530,12.5,77.7,69,14.0
2022-03-31T00:46:06Z,03/30/22 20:46,7869813,3.7060000000000004,0.040999999999999995,523,12.5,77.8,69,13.0
2022-03-31T00:47:06Z,03/30/22 20:47,7869824,3.7649999999999997,0.009,530,12.5,78.0,69,15.0
2022-03-31T00:48:06Z,03/30/22 20:48,7869836,3.693,0.009,526,12.5,78.0,69,15.0
2022-03-31T00:49:06Z,03/30/22 20:49,7869846,3.7399999999999998,0.028000000000000004,527,12.5,78.1,69,14.0
2022-03-31T00:50:06Z,03/30/22 20:50,7869857,4.2219999999999995,0.023,523,12.5,78.1,69,15.0
2022-03-31T00:51:06Z,03/30/22 20:51,7869869,3.87,0.033,530,12.6,78.3,69,14.0
2022-03-31T00:52:06Z,03/30/22 20:52,7869880,3.774,0.020999999999999998,534,12.6,78.2,69,14.0
2022-03-31T00:53:06Z,03/30/22 20:53,7869890,3.565,0.023,527,12.5,78.0,69,14.0
2022-03-31T00:54:06Z,03/30/22 20:54,7869901,3.732,0.03,529,12.6,78.1,69,15.0
2022-03-31T00:55:06Z,03/30/22 20:55,7869913,3.6590000000000003,0.034,525,12.6,78.3,69,15.0
2022-03-31T00:56:06Z,03/30/22 20:56,7869923,3.7119999999999997,0.032,530,12.6,78.4,69,15.0
2022-03-31T00:57:06Z,03/30/22 20:57,7869935,3.931,0.011,530,12.6,78.4,69,14.0
2022-03-31T00:58:06Z,03/30/22 20:58,7869946,3.9090000000000003,0.006,527,12.6,78.5,69,15.0
2022-03-31T00:59:06Z,03/30/22 20:59,7869957,3.71,0.016,531,12.6,78.6,69,14.0
2022-03-31T01:00:06Z,03/30/22 21:00,7869967,3.96,0.009,530,12.6,78.6,69,15.0
2022-03-31T01:01:06Z,03/30/22 21:01,7869978,3.6,0.015,531,12.6,78.8,69,15.0
2022-03-31T01:02:06Z,03/30/22 21:02,7869989,3.822,0.012,531,12.6,78.8,69,15.0
2022-03-31T01:03:06Z,03/30/22 21:03,7870000,3.6719999999999997,0.024,534,12.6,78.9,69,15.0
2022-03-31T01:04:06Z,03/30/22 21:04,7870011,3.8729999999999998,0.018,532,12.7,78.9,69,14.0
2022-03-31T01:05:06Z,03/30/22 21:05,7870022,3.5810000000000004,0.016,531,12.7,79.1,69,15.0
2022-03-31T01:06:06Z,03/30/22 21:06,7870033,3.729,0.009,534,12.7,79.1,69,14.0
2022-03-31T01:07:06Z,03/30/22 21:07,7870045,3.757,0.023,534,12.7,79.2,69,14.0
2022-03-31T01:08:06Z,03/30/22 21:08,7870056,3.525,0.015,531,12.7,79.2,69,14.0
2022-03-31T01:09:06Z,03/30/22 21:09,7870067,3.564,0.015,530,12.7,79.4,69,15.0
2022-03-31T01:10:06Z,03/30/22 21:10,7870077,3.495,0.015,531,12.7,79.4,69,14.0
2022-03-31T01:11:06Z,03/30/22 21:11,7870090,3.5729999999999995,0.006,534,12.7,79.5,69,15.0
2022-03-31T01:12:06Z,03/30/22 21:12,7870099,3.7979999999999996,0.012,532,12.7,79.5,69,14.0
2022-03-31T01:13:06Z,03/30/22 21:13,7870110,3.9,0.015,538,12.7,79.6,69,14.0
2022-03-31T01:14:06Z,03/30/22 21:14,7870122,3.533,0.007000000000000001,534,12.7,79.7,69,16.0
2022-03-31T01:15:06Z,03/30/22 21:15,7870133,3.469,0.026000000000000002,535,12.7,79.7,69,15.0
2022-03-31T01:16:06Z,03/30/22 21:16,7870145,3.7909999999999995,0.01,534,12.8,79.8,69,14.0
2022-03-31T01:17:06Z,03/30/22 21:17,7870155,3.589,0.017,534,12.8,79.9,69,14.0
2022-03-31T01:18:06Z,03/30/22 21:18,7870167,3.344,0.007000000000000001,534,12.8,79.9,69,15.0
2022-03-31T01:19:06Z,03/30/22 21:19,7870177,3.376,0.005,534,12.8,80.0,69,15.0
2022-03-31T01:20:06Z,03/30/22 21:20,7870188,3.489,0.009,534,12.9,80.1,69,16.0
2022-03-31T01:21:06Z,03/30/22 21:21,7870199,3.18,0.018,534,12.9,80.2,69,15.0
2022-03-31T01:22:06Z,03/30/22 21:22,7870211,3.3869999999999996,0.015,536,12.9,80.3,69,16.0
2022-03-31T01:23:06Z,03/30/22 21:23,7870221,3.4170000000000003,0.018,543,12.9,80.3,69,15.0
2022-03-31T01:24:06Z,03/30/22 21:24,7870232,3.261,0.009,538,13.0,80.3,69,15.0
2022-03-31T01:25:06Z,03/30/22 21:25,7870242,3.2409999999999997,0.011,534,13.0,80.4,69,15.0
2022-03-31T01:26:06Z,03/30/22 21:26,7870254,3.044,0.016,539,13.0,80.4,69,15.0
2022-03-31T01:27:06Z,03/30/22 21:27,7870265,3.224,0.013000000000000001,531,13.0,80.5,69,15.0
2022-03-31T01:28:06Z,03/30/22 21:28,7870276,3.217,0.014000000000000002,534,13.1,80.5,69,16.0
2022-03-31T01:29:06Z,03/30/22 21:29,7870287,2.913,0.003,531,13.1,80.5,69,15.0
2022-03-31T01:30:06Z,03/30/22 21:30,7870297,3.091,0.014000000000000002,536,13.1,80.6,69,16.0
2022-03-31T01:31:06Z,03/30/22 21:31,7870308,3.186,0.018,535,13.1,80.6,69,16.0
2022-03-31T01:32:06Z,03/30/22 21:32,7870320,2.759,0.007000000000000001,536,13.1,80.6,69,16.0
2022-03-31T01:33:06Z,03/30/22 21:33,7870330,2.968,0.014000000000000002,536,13.2,80.8,69,16.0
2022-03-31T01:34:06Z,03/30/22 21:34,7870341,2.771,0.022,532,13.2,80.8,69,15.0
2022-03-31T01:35:06Z,03/30/22 21:35,7870352,3.0170000000000003,0.019,536,13.2,80.8,69,15.0
2022-03-31T01:36:06Z,03/30/22 21:36,7870364,2.7640000000000002,0.017,534,13.2,80.9,69,16.0
2022-03-31T01:37:06Z,03/30/22 21:37,7870374,3.06,0.006,534,13.3,81.0,69,16.0
2022-03-31T01:38:06Z,03/30/22 21:38,7870385,2.71,0.014000000000000002,536,13.3,81.0,69,15.0
2022-03-31T01:39:06Z,03/30/22 21:39,7870396,2.822,0.01,531,13.3,80.9,69,15.0
2022-03-31T01:40:06Z,03/30/22 21:40,7870408,2.8760000000000003,0.01,535,13.3,81.0,69,16.0
2022-03-31T01:41:06Z,03/30/22 21:41,7870419,2.6879999999999997,0.006,529,13.4,81.1,69,16.0
2022-03-31T01:42:06Z,03/30/22 21:42,7870429,2.5260000000000002,0.006,536,13.4,81.1,69,15.0
2022-03-31T01:43:06Z,03/30/22 21:43,7870441,2.707,0.008,532,13.4,81.1,69,15.0
2022-03-31T01:44:06Z,03/30/22 21:44,7870452,2.71,0.008,535,13.4,81.0,69,14.0
2022-03-31T01:45:06Z,03/30/22 21:45,7870462,2.607,0.006,538,13.4,81.0,69,14.0
2022-03-31T01:46:06Z,03/30/22 21:46,7870473,2.48,0.01,535,13.4,81.0,69,15.0
2022-03-31T01:47:06Z,03/30/22 21:47,7870485,2.588,0.01,534,13.4,81.0,69,16.0
2022-03-31T01:48:06Z,03/30/22 21:48,7870496,2.5140000000000002,0.006,534,13.4,81.0,69,17.0
2022-03-31T01:49:06Z,03/30/22 21:49,7870507,2.942,0.007000000000000001,529,13.4,81.2,69,16.0
2022-03-31T01:50:06Z,03/30/22 21:50,7870517,2.601,0.020999999999999998,530,13.4,81.2,69,15.0
2022-03-31T01:51:06Z,03/30/22 21:51,7870529,2.434,0.023,534,13.5,81.3,69,16.0
2022-03-31T01:52:06Z,03/30/22 21:52,7870539,2.541,0.006,526,13.5,81.3,69,16.0
2022-03-31T01:53:06Z,03/30/22 21:53,7870551,2.534,0.001,527,13.5,81.3,69,16.0
2022-03-31T01:54:06Z,03/30/22 21:54,7870561,2.54,0.013000000000000001,531,13.5,81.2,69,15.0
2022-03-31T01:55:06Z,03/30/22 21:55,7870572,2.693,0.004,531,13.5,81.2,69,15.0
2022-03-31T01:56:06Z,03/30/22 21:56,7870583,2.648,0.001,532,13.5,81.2,69,16.0
2022-03-31T01:57:06Z,03/30/22 21:57,7870594,2.549,0.01,526,13.5,81.2,69,16.0
2022-03-31T01:58:06Z,03/30/22 21:58,7870605,2.386,0.008,530,13.5,81.2,69,16.0
2022-03-31T01:59:06Z,03/30/22 21:59,7870617,2.634,0.024,529,13.6,81.3,69,16.0
2022-03-31T02:00:06Z,03/30/22 22:00,7870628,2.473,0.014000000000000002,530,13.6,81.3,69,16.0
2022-03-31T02:01:06Z,03/30/22 22:01,7870638,2.23,0.008,530,13.6,81.3,69,15.0
2022-03-31T02:02:06Z,03/30/22 22:02,7870650,2.394,0.003,534,13.6,81.3,69,16.0
2022-03-31T02:03:06Z,03/30/22 22:03,7870660,2.368,0.008,535,13.6,81.4,69,16.0
2022-03-31T02:04:06Z,03/30/22 22:04,7870671,2.415,0.009,531,13.6,81.5,69,17.0
2022-03-31T02:05:06Z,03/30/22 22:05,7870683,2.41,0.017,527,13.6,81.3,69,15.0
2022-03-31T02:06:06Z,03/30/22 22:06,7870693,2.518,0.008,528,13.6,81.4,69,16.0
2022-03-31T13:01:36Z,03/31/22 09:01,7872676,0.041999999999999996,0.0,821,15.4,68.6,69,0.0
2022-03-31T13:02:36Z,03/31/22 09:02,7872684,0.020999999999999998,0.0,801,15.5,67.4,69,10.0
2022-03-31T13:03:36Z,03/31/22 09:03,7872692,0.027000000000000003,0.0,795,15.7,66.4,69,9.0
2022-03-31T13:04:36Z,03/31/22 09:04,7872700,0.018,0.0,791,15.8,65.5,69,10.0
2022-03-31T13:05:36Z,03/31/22 09:05,7872708,0.054000000000000006,0.0,785,16.0,64.8,69,11.0
2022-03-31T13:06:36Z,03/31/22 09:06,7872716,0.036,0.0,792,16.1,63.9,69,10.0
2022-03-31T13:07:36Z,03/31/22 09:07,7872724,0.051000000000000004,0.0,796,16.2,63.0,69,11.0
2022-03-31T13:08:37Z,03/31/22 09:08,7872732,0.045,0.003,784,16.2,62.1,69,11.0
2022-03-31T13:09:37Z,03/31/22 09:09,7872740,0.056999999999999995,0.0,797,16.3,61.5,69,12.0
2022-03-31T13:10:37Z,03/31/22 09:10,7872748,0.03,0.0,797,16.4,60.8,69,12.0
2022-03-31T13:11:36Z,03/31/22 09:11,7872756,0.149,0.001,790,16.4,60.2,69,12.0
2022-03-31T13:12:36Z,03/31/22 09:12,7872764,0.193,0.002,784,16.4,59.5,69,12.0
2022-03-31T13:13:36Z,03/31/22 09:13,7872772,0.153,0.0,748,16.2,58.5,69,13.0
2022-03-31T13:14:36Z,03/31/22 09:14,7872780,0.054000000000000006,0.0,698,16.0,57.9,69,15.0
2022-03-31T13:15:36Z,03/31/22 09:15,7872788,0.033,0.0,674,15.7,57.4,69,15.0
2022-03-31T13:16:36Z,03/31/22 09:16,7872796,0.027000000000000003,0.0,657,15.5,57.0,69,15.0
2022-03-31T13:17:36Z,03/31/22 09:17,7872804,0.018,0.0,641,15.2,56.7,69,16.0
2022-03-31T13:18:36Z,03/31/22 09:18,7872812,0.034999999999999996,0.001,637,14.9,56.5,69,16.0
2022-03-31T13:19:36Z,03/31/22 09:19,7872820,0.015,0.0,637,14.6,56.5,69,17.0
2022-03-31T13:20:36Z,03/31/22 09:20,7872828,0.027000000000000003,0.0,627,14.3,56.4,69,17.0
2022-03-31T13:21:36Z,03/31/22 09:21,7872836,0.08399999999999999,0.0,620,14.0,56.4,69,17.0
2022-03-31T13:22:36Z,03/31/22 09:22,7872844,0.017,0.001,606,13.8,56.3,69,18.0
2022-03-31T13:23:36Z,03/31/22 09:23,7872852,0.006,0.0,620,13.6,56.7,69,18.0
2022-03-31T13:24:36Z,03/31/22 09:24,7872860,0.014000000000000002,0.001,626,13.4,56.7,69,17.0
2022-03-31T13:25:36Z,03/31/22 09:25,7872868,0.009,0.0,653,13.3,57.0,69,17.0
2022-03-31T13:26:36Z,03/31/22 09:26,7872876,0.012,0.0,638,13.2,57.0,69,18.0
2022-03-31T13:27:36Z,03/31/22 09:27,7872884,0.018,0.0,658,13.1,57.3,69,18.0
2022-03-31T13:28:36Z,03/31/22 09:28,7872892,0.012,0.0,661,13.0,57.4,69,18.0
2022-03-31T13:29:36Z,03/31/22 09:29,7872900,0.015,0.0,683,13.0,57.5,69,18.0
2022-03-31T13:30:36Z,03/31/22 09:30,7872908,0.024,0.0,681,12.9,57.4,69,18.0
2022-03-31T13:31:36Z,03/31/22 09:31,7872916,0.018,0.0,667,12.8,57.4,69,18.0
2022-03-31T13:32:36Z,03/31/22 09:32,7872924,0.017,0.001,684,12.8,57.7,69,17.0
2022-03-31T13:33:36Z,03/31/22 09:33,7872932,0.006,0.0,700,12.8,57.6,69,17.0
2022-03-31T13:34:36Z,03/31/22 09:34,7872940,0.009,0.0,684,12.7,57.4,69,18.0
2022-03-31T13:35:36Z,03/31/22 09:35,7872948,0.037,0.002,681,12.7,57.4,69,18.0
2022-03-31T13:36:36Z,03/31/22 09:36,7872956,0.051000000000000004,0.0,675,12.7,57.4,69,19.0
2022-03-31T13:37:36Z,03/31/22 09:37,7872964,0.009,0.0,677,12.6,57.4,69,19.0
2022-03-31T13:38:36Z,03/31/22 09:38,7872972,0.020999999999999998,0.0,671,12.6,57.4,69,18.0
2022-03-31T13:39:36Z,03/31/22 09:39,7872980,0.044,0.001,767,12.7,58.5,69,15.0
2022-03-31T13:40:36Z,03/31/22 09:40,7872988,0.026000000000000002,0.001,872,13.0,58.9,69,13.0
2022-03-31T13:41:36Z,03/31/22 09:41,7872996,0.009,0.0,913,13.4,59.0,69,11.0
2022-03-31T13:42:36Z,03/31/22 09:42,7873004,0.033,0.0,927,13.7,58.8,69,11.0
2022-03-31T13:43:36Z,03/31/22 09:43,7873012,0.018,0.0,931,14.0,58.5,69,11.0
2022-03-31T13:44:36Z,03/31/22 09:44,7873020,0.024,0.0,935,14.4,58.1,69,12.0
2022-03-31T13:45:36Z,03/31/22 09:45,7873028,0.03,0.0,955,14.8,57.8,69,12.0
2022-03-31T13:46:36Z,03/31/22 09:46,7873036,0.03,0.0,974,15.1,57.5,69,12.0
2022-03-31T13:47:36Z,03/31/22 09:47,7873044,0.032,0.001,987,15.5,57.1,69,11.0
2022-03-31T13:48:36Z,03/31/22 09:48,7873052,0.03,0.0,1026,15.8,56.8,69,12.0
2022-03-31T13:49:36Z,03/31/22 09:49,7873060,0.014000000000000002,0.001,1038,16.1,56.3,69,11.0
2022-03-31T13:50:36Z,03/31/22 09:50,7873068,0.146,0.001,1054,16.4,55.9,69,11.0
2022-03-31T13:51:36Z,03/31/22 09:51,7873076,0.022,0.002,1134,16.8,56.4,69,13.0
2022-03-31T13:52:36Z,03/31/22 09:52,7873084,0.03,0.0,1130,17.1,56.2,69,12.0
2022-03-31T13:53:36Z,03/31/22 09:53,7873092,0.017,0.001,1170,17.5,55.6,69,11.0
2022-03-31T13:54:36Z,03/31/22 09:54,7873100,0.033,0.0,1421,17.8,55.7,69,11.0
2022-03-31T13:55:36Z,03/31/22 09:55,7873108,0.02,0.001,1559,18.1,55.0,69,12.0
2022-03-31T13:56:36Z,03/31/22 09:56,7873116,0.015,0.0,1620,18.4,55.1,69,11.0
2022-03-31T13:57:36Z,03/31/22 09:57,7873124,0.038,0.001,1702,18.7,55.5,69,10.0
2022-03-31T13:58:36Z,03/31/22 09:58,7873132,0.051000000000000004,0.0,1503,19.0,54.0,69,9.0
2022-03-31T14:00:38Z,03/31/22 10:00,7873147,0.009,0.0,1810,19.5,54.8,69,0.0
2022-03-31T14:01:38Z,03/31/22 10:01,7873155,0.045,0.0,1975,19.7,54.2,69,7.0
2022-03-31T14:02:38Z,03/31/22 10:02,7873163,0.03,0.003,1573,19.9,53.2,69,11.0
2022-03-31T14:03:38Z,03/31/22 10:03,7873171,0.041999999999999996,0.0,1404,20.1,52.6,69,10.0
2022-03-31T14:04:38Z,03/31/22 10:04,7873179,0.012,0.0,1435,20.2,52.2,69,10.0
2022-03-31T14:05:38Z,03/31/22 10:05,7873187,0.036,0.0,1362,20.4,52.0,69,11.0
2022-03-31T14:06:38Z,03/31/22 10:06,7873195,0.048,0.0,1357,20.6,51.3,69,10.0
2022-03-31T14:07:38Z,03/31/22 10:07,7873203,0.018,0.0,1287,20.7,50.5,69,10.0
2022-03-31T14:08:38Z,03/31/22 10:08,7873211,0.045,0.0,1245,20.7,49.7,69,11.0
2022-03-31T14:09:38Z,03/31/22 10:09,7873219,0.018,0.0,1223,20.8,49.1,69,11.0
2022-03-31T14:10:38Z,03/31/22 10:10,7873227,0.026000000000000002,0.001,1216,20.9,48.7,69,11.0
2022-03-31T14:11:38Z,03/31/22 10:11,7873235,0.027000000000000003,0.0,1214,21.0,48.3,69,11.0
2022-03-31T14:12:38Z,03/31/22 10:12,7873243,0.099,0.0,1226,21.1,47.8,69,11.0
2022-03-31T14:13:39Z,03/31/22 10:13,7873251,0.012,0.0,1227,21.1,47.5,69,11.0
2022-03-31T14:14:39Z,03/31/22 10:14,7873260,0.014000000000000002,0.001,1209,21.1,47.2,69,11.0
2022-03-31T14:15:39Z,03/31/22 10:15,7873267,0.027000000000000003,0.0,1227,21.2,46.9,69,11.0
2022-03-31T14:16:38Z,03/31/22 10:16,7873275,0.026000000000000002,0.001,1236,21.2,46.7,69,11.0
2022-03-31T14:17:38Z,03/31/22 10:17,7873283,0.024,0.0,1223,21.2,46.5,69,11.0
2022-03-31T14:18:38Z,03/31/22 10:18,7873291,0.017,0.001,1233,21.2,46.3,69,11.0
2022-03-31T14:19:38Z,03/31/22 10:19,7873299,0.003,0.0,1242,21.2,46.1,69,11.0
2022-03-31T14:20:38Z,03/31/22 10:20,7873307,0.018,0.0,1227,21.2,45.9,69,11.0
2022-03-31T14:21:38Z,03/31/22 10:21,7873315,0.012,0.0,1213,21.1,45.7,69,11.0
2022-03-31T14:22:38Z,03/31/22 10:22,7873323,0.015,0.0,1207,21.1,45.6,69,11.0
2022-03-31T14:23:38Z,03/31/22 10:23,7873330,0.018,0.0,1217,21.1,45.3,69,11.0
2022-03-31T14:24:38Z,03/31/22 10:24,7873338,0.012,0.0,1211,21.1,45.2,69,11.0
2022-03-31T14:25:38Z,03/31/22 10:25,7873346,0.024,0.0,1215,21.1,45.2,69,11.0
2022-03-31T14:26:38Z,03/31/22 10:26,7873354,0.018,0.0,1233,21.0,45.0,69,11.0
2022-03-31T14:27:38Z,03/31/22 10:27,7873362,0.076,0.011,1228,21.0,45.0,69,11.0
2022-03-31T14:28:39Z,03/31/22 10:28,7873370,0.012,0.0,1245,21.0,45.0,69,11.0
2022-03-31T14:29:39Z,03/31/22 10:29,7873378,0.027000000000000003,0.0,1251,21.0,44.9,69,11.0
2022-03-31T14:30:38Z,03/31/22 10:30,7873386,0.023,0.001,1253,21.0,44.8,69,11.0
2022-03-31T14:31:38Z,03/31/22 10:31,7873394,0.022,0.002,1249,21.0,44.7,69,11.0
2022-03-31T14:32:38Z,03/31/22 10:32,7873402,0.02,0.001,1238,21.1,44.5,69,11.0
2022-03-31T14:33:38Z,03/31/22 10:33,7873410,0.125,0.004,1219,21.1,44.4,69,11.0
2022-03-31T14:34:38Z,03/31/22 10:34,7873418,0.045,0.0,1207,21.1,44.1,69,11.0
2022-03-31T14:35:38Z,03/31/22 10:35,7873425,0.071,0.001,1192,21.1,44.0,69,11.0
2022-03-31T14:36:38Z,03/31/22 10:36,7873433,0.023,0.001,1178,21.1,43.9,69,11.0
2022-03-31T14:37:38Z,03/31/22 10:37,7873440,0.015,0.0,1204,21.1,43.9,69,11.0
2022-03-31T14:38:38Z,03/31/22 10:38,7873448,0.027000000000000003,0.0,1282,21.2,44.0,69,10.0
2022-03-31T14:39:38Z,03/31/22 10:39,7873456,0.012,0.0,1272,21.3,44.4,69,9.0
2022-03-31T14:40:38Z,03/31/22 10:40,7873464,0.028999999999999998,0.001,1313,21.3,44.2,69,11.0
2022-03-31T14:41:38Z,03/31/22 10:41,7873472,0.027000000000000003,0.0,1492,21.4,44.0,69,10.0
2022-03-31T14:42:38Z,03/31/22 10:42,7873480,0.036,0.0,1347,21.4,43.6,69,11.0
2022-03-31T14:43:39Z,03/31/22 10:43,7873488,0.033,0.0,1276,21.5,43.3,69,11.0
2022-03-31T14:44:38Z,03/31/22 10:44,7873496,0.033,0.0,1242,21.5,43.1,69,11.0
2022-03-31T14:45:38Z,03/31/22 10:45,7873504,0.033,0.0,1232,21.6,43.0,69,11.0
2022-03-31T14:49:34Z,03/31/22 10:49,7873525,0.09,0.0,596,19.9,40.3,69,18.0
2022-03-31T14:50:34Z,03/31/22 10:50,7873536,0.123,0.0,530,19.0,40.3,69,19.0
2022-03-31T14:52:01Z,03/31/22 10:52,7873543,0.537,0.0,382,17.5,41.0,69,20.0
2022-03-31T14:53:01Z,03/31/22 10:53,7873554,0.06899999999999999,0.0,385,16.6,41.6,69,20.0
2022-03-31T14:54:01Z,03/31/22 10:54,7873565,0.027000000000000003,0.0,372,15.6,42.2,69,21.0
2022-03-31T14:55:01Z,03/31/22 10:55,7873576,0.056999999999999995,0.0,378,14.8,43.0,69,21.0
2022-03-31T14:56:02Z,03/31/22 10:56,7873587,0.06,0.0,374,13.9,43.7,69,22.0
2022-03-31T14:57:01Z,03/31/22 10:57,7873598,0.024,0.0,373,13.0,44.7,69,22.0